Theta_e
317 316 316 317 317 317 317 317 317 318 318 319 319 319 319 319 320 320 319 320 319 320 320 320 320 320 321 321 321 321 320 319 319 317 316 323 331 341 340 350 346 350 361 334 333 332 329 330 329 335 337 340 339 335 338 339 338 334 329 327 321 322 320 324 323 324 328 325 327 329 331 330 326 331 335 337 335 335 336 335 339 341 340 342 344 346 346 346
316 316 316 316 316 316 317 317 317 317 318 318 318 318 319 319 320 320 320 319 319 319 319 319 320 320 321 320 321 321 319 317 317 318 317 325 342 342 349 349 351 355 355 325 323 326 327 327 329 332 334 334 340 334 338 332 339 327 324 325 319 325 326 330 329 329 326 323 328 330 331 330 329 330 333 331 330 332 331 333 336 338 340 342 344 344 344 344
316 316 316 316 316 316 317 316 317 317 317 318 318 318 318 318 319 319 319 320 319 319 319 319 319 320 320 320 320 320 319 317 318 317 324 341 339 344 347 349 349 353 333 325 324 324 326 328 329 330 333 334 335 331 334 329 335 331 324 320 324 327 332 330 330 329 332 331 327 329 330 331 329 331 334 330 329 331 330 330 334 334 334 338 341 343 344 344
316 316 316 316 316 316 317 317 317 317 317 317 318 318 318 318 319 319 319 319 319 319 319 319 320 319 320 320 320 320 318 317 314 318 323 345 346 343 347 347 349 349 330 327 327 324 326 329 329 330 331 332 333 334 328 328 329 332 325 320 328 331 326 334 330 330 332 333 331 328 330 328 330 330 331 329 328 329 330 334 334 333 335 338 341 342 343 342
316 316 316 316 316 316 316 316 317 317 317 318 318 317 318 318 318 318 318 319 319 319 319 319 319 319 319 319 319 321 317 308 310 323 337 357 352 347 347 347 350 331 325 324 325 327 329 328 328 329 331 329 330 330 327 329 332 330 325 328 331 332 328 329 331 333 331 335 330 330 328 327 333 333 332 331 325 326 330 334 337 337 338 339 340 341 342 342
315 316 315 315 316 316 316 316 317 317 316 316 317 318 318 317 317 318 318 318 318 318 318 319 319 319 320 320 320 320 315 299 322 319 352 352 353 349 348 348 350 326 323 321 321 326 329 328 328 325 327 328 326 322 327 327 334 322 325 327 331 330 326 331 332 332 334 332 332 331 331 331 330 331 333 332 328 330 336 338 340 339 340 341 342 341 340 341
315 315 315 315 316 315 316 316 317 317 317 317 317 317 317 317 317 317 318 318 318 318 318 319 319 320 320 320 319 317 313 312 319 327 361 351 348 348 348 351 352 325 321 319 320 324 328 326 326 325 327 325 325 323 325 327 329 327 324 327 330 331 329 333 331 332 331 329 328 332 334 328 328 326 332 330 333 334 336 338 339 340 340 341 341 340 340 341
315 315 315 315 316 316 316 316 316 316 316 316 317 317 317 317 317 317 318 318 318 318 319 320 320 321 320 319 316 313 311 311 318 328 355 353 346 347 347 332 327 321 319 318 319 323 327 324 322 327 326 322 322 322 325 325 327 323 323 326 327 334 333 333 333 332 332 333 334 334 331 330 329 328 329 329 332 335 337 340 339 339 340 341 341 340 341 341
315 315 315 315 316 316 316 316 316 316 316 316 316 317 316 316 316 317 318 318 318 319 320 321 321 322 321 319 317 312 312 322 324 328 342 331 328 332 329 323 324 320 319 321 322 325 327 323 323 326 322 323 324 321 323 322 320 325 324 328 327 326 332 331 331 331 331 333 333 328 325 329 329 332 327 330 331 335 337 338 337 338 337 339 340 341 341 341
315 315 315 315 316 316 316 316 316 316 316 316 316 316 316 316 316 317 318 318 318 319 321 322 321 321 319 316 314 308 318 326 326 330 331 326 326 327 325 324 324 321 321 322 323 325 324 323 323 327 327 325 324 320 323 322 321 328 327 326 326 327 327 333 331 331 332 332 333 328 327 326 329 328 321 331 333 335 336 336 337 337 336 338 339 341 342 341
315 315 315 315 316 316 316 316 316 316 316 316 315 315 315 316 316 317 317 318 318 320 323 325 323 320 316 316 310 307 324 322 322 331 329 325 326 324 323 324 326 322 325 325 324 327 326 325 326 326 326 322 324 321 322 323 328 327 328 327 326 326 327 329 332 331 332 328 331 331 326 328 328 325 323 329 334 335 334 335 335 336 336 337 337 339 342 340
315 315 315 315 315 316 316 316 315 316 316 315 315 315 315 316 315 316 316 318 319 322 323 324 324 321 319 316 309 312 324 322 324 324 328 325 327 326 326 326 328 325 325 325 327 328 327 325 326 324 319 326 318 323 322 327 326 327 327 321 323 326 325 327 327 329 331 327 332 332 325 323 324 322 326 330 334 333 334 334 334 335 336 337 337 341 342 342
315 315 315 315 315 316 316 316 316 315 315 314 315 315 315 315 315 315 317 318 320 323 323 323 325 322 318 311 315 322 324 325 325 324 327 327 323 325 327 327 327 327 326 326 328 329 327 325 325 322 326 324 320 316 324 327 324 326 327 323 322 320 319 325 327 328 328 329 331 330 313 317 322 325 327 331 332 332 332 333 333 335 335 336 337 338 341 343
315 315 315 315 315 315 316 315 315 315 314 314 314 314 314 314 314 316 318 319 321 323 322 324 325 322 318 313 321 326 327 326 326 324 323 329 326 322 324 327 327 328 328 327 330 331 328 326 324 323 327 322 319 326 320 322 325 318 323 325 318 316 315 323 324 326 323 329 329 329 314 316 321 324 327 330 332 330 330 332 333 335 336 335 337 339 341 342
315 315 315 315 315 315 315 315 314 314 314 314 313 313 313 312 315 318 320 320 324 327 324 324 324 321 315 316 326 328 346 333 321 322 324 322 324 323 323 327 325 326 327 328 328 330 328 326 323 319 318 324 323 320 317 317 319 319 316 314 318 314 316 321 325 324 319 325 328 325 314 316 320 323 327 330 332 331 330 332 333 334 334 335 335 338 340 341
314 314 315 314 315 315 314 314 313 313 314 312 311 311 313 315 317 320 321 322 325 323 324 321 321 321 315 311 320 341 329 320 317 323 324 323 325 324 327 326 325 325 327 327 329 330 328 325 318 318 318 320 317 315 315 314 313 316 313 312 312 314 314 315 320 323 323 324 326 322 315 317 318 324 326 331 332 330 331 332 331 333 334 334 335 336 338 340
314 314 314 315 315 314 314 313 313 313 312 311 311 312 314 317 318 321 323 326 326 324 325 321 325 322 309 321 326 318 318 322 323 321 321 322 322 326 327 324 321 323 327 327 327 327 326 320 321 318 318 314 315 315 311 309 308 310 313 310 314 312 313 311 318 322 322 322 320 322 318 318 319 323 325 329 332 330 330 329 332 334 336 337 335 336 337 339
314 314 314 315 315 314 314 313 312 312 311 310 310 311 312 319 320 317 323 324 326 326 325 326 323 319 315 322 313 316 322 321 322 322 320 321 321 326 327 322 322 324 325 322 325 320 323 317 319 311 313 312 313 312 308 304 307 308 309 309 311 314 315 313 312 318 321 321 319 320 318 318 320 322 325 328 331 330 330 330 332 333 334 335 335 338 339 340
314 314 314 314 314 313 313 312 312 310 310 311 311 316 319 316 320 320 322 326 322 319 312 316 315 302 305 314 322 320 321 323 323 322 317 317 320 326 329 328 326 323 319 316 317 318 320 318 317 311 307 308 309 312 311 313 313 311 312 311 311 310 311 312 316 320 320 318 317 318 316 317 319 320 326 327 330 330 329 330 333 333 333 337 336 336 340 340
314 314 314 313 313 313 313 313 311 310 309 309 312 314 312 306 304 316 315 310 306 307 312 312 318 315 316 318 319 324 326 323 317 318 319 318 319 321 322 322 321 321 317 311 315 315 321 312 309 308 309 311 313 314 316 316 315 314 313 312 311 311 313 316 317 320 321 318 317 317 318 318 318 321 325 326 326 327 330 330 332 335 335 335 336 335 340 342
314 314 313 313 313 312 312 311 310 309 309 311 310 308 299 300 297 296 302 304 307 308 306 306 307 309 312 319 321 321 316 316 319 317 318 320 318 318 316 319 317 312 314 316 315 319 318 311 309 312 314 314 315 316 318 317 314 312 311 311 310 312 310 315 316 319 321 317 315 318 317 317 319 321 324 326 325 324 325 330 329 331 334 336 336 336 340 342
314 314 313 312 312 311 311 311 309 309 309 312 313 305 304 304 307 309 306 298 304 307 308 308 309 307 311 311 314 315 314 313 315 317 318 318 315 313 316 316 314 310 315 316 315 312 308 308 312 315 317 317 317 317 316 315 313 312 309 310 309 310 314 316 317 319 319 317 314 316 315 316 318 319 324 324 324 325 326 334 332 334 337 338 339 338 340 341
314 313 313 313 312 311 310 309 309 307 310 314 311 305 304 308 311 313 310 303 301 308 308 308 306 306 306 311 313 315 309 309 311 315 315 317 315 314 316 313 313 314 315 315 308 307 304 308 314 317 317 316 315 316 315 313 313 311 309 307 306 311 311 308 314 317 318 317 314 316 314 315 318 320 321 323 324 325 327 334 333 337 336 336 339 339 339 339
314 314 313 312 311 310 310 308 307 314 313 312 310 306 308 311 311 312 307 299 297 303 306 307 309 309 307 305 311 311 309 311 314 313 319 316 312 315 314 314 312 312 311 313 310 307 306 311 316 317 315 314 312 312 312 310 308 312 311 309 308 309 311 312 312 316 318 318 318 316 313 313 316 316 317 321 323 324 325 326 333 337 337 339 342 341 341 340
313 313 313 312 310 310 308 306 311 308 312 314 308 309 310 311 312 312 304 301 303 303 313 311 312 309 312 317 314 308 311 313 316 319 319 316 313 312 310 316 313 309 311 313 311 308 308 313 314 312 312 311 311 309 311 311 308 309 312 311 310 311 311 312 314 313 311 311 314 314 306 307 314 315 315 319 320 322 325 325 345 333 339 340 338 339 340 339
313 313 312 311 311 309 307 307 306 311 312 308 307 309 310 310 313 312 304 298 294 304 310 306 315 307 316 310 311 310 312 307 316 319 321 318 319 314 312 310 313 307 311 311 309 309 309 314 314 311 310 310 310 309 311 313 309 307 308 313 312 311 311 312 311 310 306 304 312 317 306 304 313 313 316 318 318 319 321 325 325 332 337 336 338 339 340 339
313 312 311 310 310 308 305 303 310 313 308 306 309 310 310 311 315 310 301 297 295 309 304 310 308 308 313 311 310 311 298 302 316 319 319 320 313 318 309 307 311 312 314 314 309 305 311 311 312 313 312 310 308 307 311 312 308 306 313 313 311 311 310 310 310 310 308 314 315 315 312 306 306 312 317 318 318 319 319 323 325 326 336 333 337 338 339 339
313 311 310 309 308 308 307 309 310 310 306 308 311 311 310 312 312 309 299 289 291 310 304 306 309 313 311 312 311 306 307 313 306 312 319 320 318 313 310 307 307 308 311 310 300 310 311 308 310 310 311 309 307 310 313 314 309 309 313 314 311 310 310 311 309 308 309 308 305 310 314 306 306 312 318 318 315 316 318 319 323 327 328 335 335 335 337 338
311 311 310 309 308 307 313 311 310 309 309 311 311 311 311 312 308 300 294 286 304 306 312 306 314 312 312 312 308 308 308 313 306 312 317 320 319 314 305 308 309 309 311 310 305 309 313 312 311 312 310 307 311 313 314 313 308 312 314 314 313 312 310 310 307 307 307 305 301 306 310 304 305 311 312 316 315 314 316 318 319 325 327 330 334 337 339 340
311 311 310 309 309 312 311 310 310 312 311 312 311 311 310 308 302 293 291 284 306 298 307 306 306 305 310 306 306 307 305 308 311 314 315 314 315 317 314 315 310 308 307 310 309 311 314 317 317 312 310 312 313 313 314 313 313 315 313 310 310 309 309 309 307 307 304 299 301 306 309 307 301 308 311 311 312 317 318 320 320 324 327 334 329 335 340 338
309 309 309 308 309 310 311 309 310 311 312 313 311 310 308 303 294 289 285 296 304 304 310 306 304 309 305 305 302 307 306 307 308 310 309 314 312 313 313 308 311 306 306 308 307 310 312 314 312 313 316 316 315 312 314 315 314 312 309 307 307 305 307 306 304 305 298 296 303 307 307 309 300 306 312 316 320 319 319 319 320 320 327 330 335 332 336 338
308 307 308 309 312 315 308 308 311 311 311 311 310 305 300 289 295 286 287 306 292 300 300 299 304 302 303 305 304 305 304 306 308 307 308 307 308 307 307 303 304 298 299 302 302 309 307 309 313 314 318 314 313 310 310 312 312 310 308 307 300 298 301 296 301 296 295 295 303 306 307 304 303 309 313 315 317 319 321 321 322 322 325 330 331 337 336 336
307 306 306 312 316 315 314 313 311 311 311 310 306 303 295 289 282 292 293 297 293 300 297 302 299 300 301 302 303 306 309 304 308 307 309 310 307 308 310 308 309 304 297 303 303 303 304 310 311 312 314 316 314 307 306 305 308 308 306 304 299 296 294 292 296 300 299 301 305 305 307 301 307 309 314 313 317 320 321 322 323 330 329 330 331 332 337 338
306 307 311 317 317 315 314 313 311 310 308 308 303 297 293 285 284 297 292 295 296 301 300 298 298 301 302 300 303 306 303 308 307 306 308 307 307 305 308 310 310 307 306 305 301 302 298 299 305 309 307 315 313 312 311 308 308 307 310 306 302 301 297 293 296 294 296 300 303 306 302 300 300 305 314 315 316 319 322 322 324 326 331 332 331 333 336 338
306 310 318 319 320 318 312 310 311 310 307 303 297 293 286 286 291 289 292 295 297 298 295 299 297 298 299 302 305 306 306 303 309 306 306 305 304 305 305 306 310 310 308 301 305 305 303 303 308 313 313 314 311 314 315 312 309 310 310 309 304 301 307 299 301 300 300 299 300 303 301 306 306 315 316 317 316 317 319 321 323 326 327 330 332 333 331 338
309 315 316 315 310 312 311 310 310 309 305 299 293 289 287 291 289 295 292 297 297 293 294 296 297 295 297 300 304 303 309 304 306 306 305 305 307 305 309 310 308 310 307 302 307 302 304 301 311 312 314 313 312 314 314 315 302 307 307 302 304 311 308 304 305 306 305 302 299 306 304 306 311 311 314 315 315 315 317 318 319 323 328 332 331 333 331 331
311 314 311 313 313 312 311 310 310 308 305 298 292 287 292 293 297 294 297 294 295 296 293 288 292 293 293 295 297 299 299 301 303 305 302 306 303 307 308 310 313 311 311 309 305 311 303 303 311 310 308 313 316 315 315 315 314 309 302 305 311 313 311 305 298 303 301 297 299 304 301 303 303 300 312 313 313 314 315 316 317 321 325 330 330 332 332 330
310 312 313 313 313 312 311 311 310 308 303 297 291 292 297 292 297 296 298 297 296 296 292 290 292 296 292 292 293 295 297 296 298 305 302 306 301 310 308 308 313 312 312 314 308 308 310 303 308 311 311 312 316 314 312 314 315 310 307 314 304 300 299 305 303 296 297 296 300 303 305 305 305 305 309 309 311 313 316 318 317 317 320 329 330 332 336 335
312 310 304 307 312 311 311 312 309 305 300 293 291 289 294 294 297 296 297 297 296 294 291 293 290 293 293 290 293 294 296 292 298 295 299 304 301 305 305 305 308 312 312 313 308 309 311 302 305 312 310 312 312 311 303 307 312 314 315 310 312 308 304 301 302 304 304 299 299 300 304 301 309 310 311 311 313 315 314 316 316 317 322 327 329 333 334 334
307 304 301 309 312 311 312 310 305 302 297 290 291 292 296 293 295 297 298 297 294 293 292 291 294 290 292 293 293 291 294 295 293 294 297 303 301 305 302 307 304 307 309 310 309 312 306 310 300 308 312 311 304 308 305 307 305 306 307 306 307 307 310 308 307 303 301 301 300 300 298 304 310 315 313 314 315 317 316 316 321 318 321 327 334 333 334 335
310 304 302 311 311 310 310 306 300 295 293 295 295 293 294 293 295 296 297 298 296 299 294 293 292 290 292 290 291 295 294 294 295 294 296 298 299 296 304 304 306 305 309 310 309 310 307 307 302 306 307 305 306 311 311 310 310 307 306 305 307 304 302 299 298 307 304 301 297 300 299 310 312 316 316 316 319 317 318 318 319 319 320 325 328 334 336 335
305 296 299 310 311 309 304 297 297 298 295 292 292 294 293 299 295 295 297 298 297 295 299 295 295 294 292 292 292 293 292 292 294 294 297 294 297 299 303 307 306 307 305 305 307 312 312 309 306 303 306 307 309 312 314 314 313 311 309 306 310 308 306 302 295 300 304 304 305 305 302 307 317 318 320 318 318 318 319 318 318 319 321 323 326 329 336 337
301 299 309 311 310 308 301 296 298 296 294 296 298 298 298 296 295 296 294 296 293 296 295 295 294 292 294 294 293 292 293 291 294 293 296 297 296 302 306 306 306 306 307 306 309 311 318 306 303 305 310 313 312 313 313 314 313 310 309 310 309 306 306 305 304 306 303 303 301 301 301 306 314 331 325 318 327 319 321 319 322 318 319 323 326 327 335 335
302 303 304 309 310 307 299 291 290 293 294 297 297 295 298 297 295 295 295 296 294 293 292 292 294 296 293 296 294 291 294 288 294 295 294 297 296 304 304 304 305 303 304 303 302 308 303 308 306 302 302 305 306 308 309 312 311 308 307 308 309 310 310 309 309 310 303 304 303 301 296 304 313 323 322 319 317 317 318 318 320 319 321 321 326 328 333 337
303 304 303 305 308 305 296 297 294 293 293 294 294 293 294 295 297 297 296 294 297 296 294 292 294 296 294 296 294 295 295 292 290 295 296 296 296 302 303 304 305 304 306 308 311 309 303 304 305 298 296 296 295 295 298 302 304 308 310 308 309 308 309 307 302 306 299 309 309 302 302 312 315 322 318 317 316 321 318 318 319 323 323 320 321 332 338 338
300 292 299 300 303 301 300 302 298 295 293 294 292 294 295 292 296 298 297 296 297 297 296 295 296 297 295 295 293 292 292 295 292 291 293 293 297 299 302 303 304 305 313 314 313 309 304 306 305 305 303 303 304 308 309 311 307 304 306 308 307 308 310 310 308 305 301 307 306 310 310 310 312 313 315 315 316 315 315 318 318 320 322 332 353 349 345 345
302 295 295 292 297 298 296 298 296 296 292 295 289 294 292 293 295 295 298 293 297 296 296 296 295 292 293 293 292 291 292 292 294 293 292 292 296 297 301 302 303 307 312 311 311 307 305 302 305 307 307 308 313 311 311 312 307 307 306 306 308 307 308 307 305 303 316 306 301 313 325 310 311 313 314 316 317 320 319 320 318 325 332 331 337 348 344 337
293 297 298 300 292 290 292 293 296 295 296 296 294 296 293 292 293 291 296 297 297 298 292 294 295 295 293 292 292 289 291 291 292 290 292 293 293 296 296 301 300 306 307 305 309 305 302 299 305 306 306 308 310 311 312 311 310 309 308 308 307 308 307 306 307 309 312 305 304 316 322 314 313 314 314 317 319 318 317 318 319 324 329 336 339 333 330 331
299 299 298 301 293 296 295 296 296 295 294 296 295 295 291 291 291 294 293 294 295 294 296 289 292 294 294 295 293 290 292 287 287 291 291 291 292 292 292 296 300 301 300 301 306 308 304 301 305 307 305 307 308 309 311 310 309 309 309 308 308 308 307 307 308 309 309 314 314 315 321 313 314 315 315 317 320 318 320 323 324 325 324 336 328 334 326 328
294 294 293 298 298 296 297 296 295 295 293 296 291 293 293 293 291 293 295 294 291 293 297 292 293 294 294 294 294 290 292 292 291 288 293 292 291 293 292 293 293 298 299 298 301 305 301 300 306 304 302 303 307 309 310 310 309 307 308 310 309 309 308 308 308 309 310 310 311 311 316 315 317 322 320 320 323 322 323 320 319 326 323 322 325 322 324 327
302 303 302 294 290 294 296 296 294 293 291 293 291 293 292 293 292 295 294 296 295 293 294 292 294 294 296 295 293 293 295 295 295 294 295 294 289 294 291 293 297 293 296 297 299 300 302 300 304 303 299 300 305 307 308 309 308 306 306 308 308 308 306 308 307 309 309 309 311 310 312 310 317 320 318 321 322 322 322 324 323 325 321 323 323 323 326 332
303 305 304 299 289 296 293 295 295 293 289 292 293 293 293 294 296 296 292 296 297 297 296 295 295 294 294 294 294 295 297 297 297 298 298 298 298 297 297 296 296 294 294 295 299 297 299 300 299 300 298 299 305 306 307 306 304 302 304 306 308 310 312 311 311 312 311 312 308 307 309 317 321 323 318 317 318 319 320 319 322 323 334 325 325 327 327 328
Wind_Speed
21 21 21 21 21 21 22 22 22 23 24 24 24 24 23 23 22 22 21 21 20 20 21 20 19 19 18 17 17 16 15 14 15 13 15 24 12 14 18 4 12 14 12 11 13 12 14 15 16 16 14 12 11 12 11 13 9 8 4 5 5 6 5 9 8 9 11 4 7 2 7 9 8 7 9 11 12 11 14 11 8 13 13 16 19 22 22 23
21 21 21 21 21 21 22 23 23 23 24 25 24 24 24 24 23 23 22 21 20 20 20 19 19 18 18 17 16 15 14 14 17 17 24 22 10 19 11 12 13 15 13 13 15 15 14 15 16 16 14 12 11 11 11 9 10 8 6 6 5 5 3 10 7 7 10 13 7 6 4 5 8 8 7 7 11 10 12 11 11 14 16 18 21 23 22 23
21 21 21 21 22 22 22 23 24 25 25 24 23 23 24 24 24 23 22 21 20 20 20 19 18 18 17 17 15 13 13 15 16 23 24 22 27 18 17 14 16 16 17 15 15 15 15 14 15 15 13 12 11 11 12 10 10 9 9 6 2 3 4 6 6 7 1 16 11 6 6 5 4 6 9 6 11 12 10 10 14 16 19 20 22 23 22 22
21 21 21 22 22 23 23 24 25 24 23 23 24 24 25 25 25 24 23 21 20 20 19 19 19 18 17 16 13 13 11 14 13 14 11 11 24 24 20 18 18 18 17 16 15 15 15 14 15 16 13 13 11 13 12 10 8 7 9 8 6 5 4 4 8 11 11 13 18 11 7 9 8 9 8 8 9 6 7 13 11 18 20 23 23 23 22 21
22 22 22 22 23 23 24 26 26 25 24 24 24 24 23 24 24 24 23 22 21 20 19 19 19 17 15 14 11 9 10 9 2 10 8 8 10 23 22 20 18 17 18 15 16 16 16 16 15 15 13 11 13 12 13 12 10 7 9 5 13 10 5 5 10 14 11 18 12 2 9 7 5 5 5 11 4 1 5 13 14 18 21 22 23 22 21 21
22 22 22 23 23 24 24 24 25 25 25 24 24 24 23 24 23 23 23 22 21 20 20 19 17 16 15 11 10 9 6 3 7 7 7 11 13 14 16 16 17 17 16 17 15 16 17 16 16 13 12 12 13 13 11 13 10 10 9 6 16 9 4 6 9 9 12 10 5 17 4 2 8 4 7 13 10 11 9 15 15 18 20 21 21 21 21 22
23 23 23 23 24 24 25 25 26 26 26 25 24 23 23 23 22 21 22 21 20 20 20 18 15 15 12 10 11 8 9 13 8 8 7 16 12 16 15 14 15 16 17 17 17 16 17 17 16 14 13 14 15 14 13 11 13 12 9 8 10 7 5 7 10 13 12 6 13 11 12 4 9 7 8 10 7 10 10 17 18 19 19 21 22 21 22 21
23 23 24 24 25 25 25 26 26 27 27 26 25 24 23 23 22 22 22 21 19 19 18 15 12 11 9 8 6 8 12 16 22 9 10 12 14 13 14 14 15 15 17 20 18 19 16 18 17 14 14 13 10 14 12 13 12 13 12 12 7 16 15 11 4 8 11 12 4 12 14 14 9 6 6 10 7 11 13 16 19 19 20 20 20 20 20 20
24 24 24 25 25 25 26 27 26 27 27 27 26 24 24 23 22 21 21 20 19 17 15 13 11 9 5 6 8 10 17 18 19 10 15 13 13 14 15 10 14 15 17 18 19 17 16 15 17 16 12 15 14 14 15 12 11 13 13 12 11 9 11 9 8 9 10 9 9 9 5 5 8 7 6 11 10 12 14 17 18 19 19 20 19 19 19 19
25 25 25 26 27 27 27 27 27 27 27 28 27 25 23 22 21 20 21 21 18 16 13 10 9 8 7 7 8 11 10 13 15 17 17 14 14 15 15 9 15 16 16 18 18 18 18 13 17 15 16 14 13 15 13 15 10 8 13 14 13 13 10 15 10 7 8 11 12 8 7 7 7 6 7 11 12 14 15 17 18 17 18 19 18 18 18 20
25 25 26 27 27 28 28 28 28 27 28 27 28 26 23 22 21 20 20 20 17 15 13 11 8 8 9 10 10 14 7 10 2 14 16 15 15 14 13 12 14 15 17 16 18 18 16 16 14 10 12 11 11 15 15 12 12 14 10 11 15 15 14 10 13 13 10 13 14 11 8 7 8 9 4 12 14 14 16 16 18 17 16 17 18 19 17 17
25 26 27 28 28 28 28 29 28 27 27 28 28 25 22 22 20 20 20 19 17 14 10 8 10 7 9 11 13 16 5 4 1 6 13 13 15 15 13 13 14 15 16 16 17 16 16 16 14 14 10 11 14 12 15 16 14 13 14 11 12 12 14 15 13 13 18 12 13 11 10 11 9 10 7 11 14 15 15 16 16 17 16 17 17 17 16 16
26 27 28 28 28 28 29 30 29 30 28 27 25 23 23 21 19 20 20 17 12 10 9 9 9 7 8 11 19 20 21 18 11 8 6 9 13 13 13 13 14 15 15 15 15 15 15 15 16 16 16 12 12 11 2 8 15 12 12 12 12 12 13 14 13 15 14 11 12 11 10 7 10 9 8 10 15 15 15 16 15 14 14 14 15 15 16 16
27 28 29 28 29 28 29 29 30 31 29 27 26 24 22 20 21 20 18 14 14 12 8 8 8 7 8 13 7 11 21 17 19 16 11 9 11 14 15 14 15 14 14 15 15 12 15 14 16 16 11 16 12 10 18 8 8 12 12 11 11 11 11 13 15 17 17 12 12 12 9 7 11 12 11 11 15 15 14 15 14 14 14 13 14 15 15 17
27 27 29 28 29 28 28 28 30 30 30 29 27 25 24 27 19 19 15 12 13 12 6 6 8 7 9 12 14 27 28 16 16 18 13 13 13 13 16 16 17 16 14 15 13 12 12 14 15 14 13 13 16 16 12 12 10 10 11 14 12 13 10 14 17 17 16 13 16 13 11 9 9 12 14 13 15 15 13 14 10 11 12 14 12 13 14 14
25 26 28 29 29 29 29 29 29 29 29 30 30 31 27 20 15 12 9 12 11 2 6 6 9 11 10 14 8 0 13 17 16 16 16 15 14 13 14 16 15 16 16 14 11 10 11 13 15 13 13 14 16 12 11 10 11 12 13 12 14 12 11 11 15 18 19 13 16 16 8 7 9 7 14 15 16 15 14 12 14 15 15 14 12 13 14 15
25 25 25 27 29 29 30 30 30 30 31 30 32 31 28 20 10 9 7 6 6 7 7 5 8 11 6 0 7 11 11 17 14 13 15 16 14 14 14 15 16 17 16 15 13 12 12 14 10 12 14 13 12 12 12 13 12 12 12 12 12 14 12 12 13 16 19 15 13 17 13 10 4 8 12 16 16 15 14 15 13 10 10 10 12 13 13 14
24 25 25 25 28 29 28 30 30 30 30 32 30 31 24 26 6 1 8 8 6 7 8 10 9 8 17 19 14 11 11 11 15 15 16 14 16 15 13 14 13 16 15 15 15 15 13 12 11 13 12 14 14 15 16 16 13 10 12 12 13 14 15 13 12 11 16 19 15 15 15 13 11 12 13 15 14 14 14 12 12 13 9 12 11 13 14 13
25 24 24 23 26 28 27 28 31 31 28 28 32 29 20 3 7 5 5 6 6 4 5 8 10 9 6 0 16 17 8 8 12 15 16 17 16 14 13 12 13 16 15 15 13 18 11 11 12 13 16 17 18 18 18 15 13 15 15 13 13 13 13 14 14 11 15 16 14 15 13 13 13 12 12 13 11 10 13 17 10 11 11 11 12 11 13 12
26 25 24 26 26 27 27 27 31 30 28 20 18 15 5 9 4 4 2 8 12 15 20 15 12 17 24 24 12 8 7 3 14 14 15 17 14 18 16 14 14 16 16 15 14 18 11 14 16 18 17 18 20 21 19 19 17 16 15 15 14 14 14 14 16 14 15 13 16 15 15 15 15 14 14 12 11 11 12 17 13 10 13 14 13 12 12 13
25 25 25 26 27 27 27 27 31 30 28 17 16 12 12 14 15 10 17 18 17 20 20 22 21 20 20 19 18 7 7 10 11 13 16 15 17 17 16 15 16 16 17 17 14 13 16 16 20 21 19 19 20 20 19 18 19 20 16 15 14 16 13 15 15 16 14 13 13 16 15 16 14 16 19 17 15 16 16 22 19 16 13 14 16 14 14 13
26 26 27 27 27 28 29 28 31 29 28 14 12 9 9 12 7 10 12 18 19 16 20 23 22 23 20 23 24 19 18 11 15 14 14 19 18 17 15 17 18 17 16 16 15 14 17 20 19 20 18 18 18 19 21 20 19 20 16 14 14 13 13 14 18 13 14 15 11 16 17 15 16 13 19 20 19 15 15 23 20 17 16 15 16 17 16 14
27 27 29 27 27 29 30 29 29 28 11 10 9 12 11 12 12 9 11 16 22 23 17 20 21 23 23 18 20 15 17 16 14 17 17 18 19 19 16 17 18 16 17 19 17 16 16 19 20 18 18 19 20 19 20 21 18 15 15 15 13 12 13 12 17 15 13 11 11 12 16 14 18 19 19 21 19 17 17 22 24 20 20 19 20 17 16 16
27 27 28 29 27 29 32 28 30 18 6 13 8 13 13 12 12 12 14 10 15 21 21 23 22 20 21 19 14 20 18 13 15 17 17 19 18 18 16 21 19 18 18 22 23 18 18 11 17 19 21 21 21 21 20 17 16 17 18 16 15 14 13 13 12 14 14 14 13 14 12 9 11 14 13 14 16 20 19 17 26 19 21 19 18 18 18 18
25 25 26 28 29 27 31 30 10 12 16 13 11 14 14 13 11 13 13 13 12 13 18 18 15 17 19 15 14 16 16 15 17 13 17 21 20 17 17 14 15 18 19 21 22 21 19 17 15 22 20 21 21 19 21 17 16 16 21 20 18 15 15 15 15 13 13 14 17 16 8 11 11 15 16 14 13 15 15 18 23 20 18 22 21 20 19 18
25 25 24 26 27 25 32 14 9 14 19 8 13 14 14 13 11 11 11 8 13 11 10 10 12 11 13 16 15 15 14 18 17 15 15 19 18 16 12 14 12 18 22 21 19 14 15 16 17 19 22 22 22 19 20 19 14 15 15 21 21 18 17 17 15 14 12 13 13 18 15 10 11 16 17 14 12 14 12 17 19 23 23 21 20 18 18 19
25 26 25 26 27 23 13 7 13 16 9 11 14 15 14 13 10 14 9 7 11 4 6 9 13 5 7 15 17 15 14 14 13 18 19 20 21 16 17 15 14 12 13 11 10 15 15 19 20 18 21 20 19 19 19 21 16 14 13 18 21 21 19 18 17 14 12 12 16 20 15 11 10 14 14 16 17 15 17 17 19 19 22 22 21 21 20 19
26 25 25 25 26 21 7 10 13 11 12 12 15 14 15 12 13 10 6 7 3 7 5 3 4 3 6 13 19 19 10 6 17 20 22 18 22 20 19 20 18 18 17 15 19 12 18 21 21 21 19 17 18 18 17 20 17 11 13 14 17 20 20 18 15 14 13 12 13 14 19 12 11 10 15 19 20 18 15 14 17 20 23 23 21 20 21 20
25 25 24 24 27 31 15 8 8 11 14 13 14 15 11 14 12 7 6 7 7 4 3 3 1 5 1 9 18 17 16 8 10 15 21 19 25 15 17 22 19 18 20 21 16 12 15 19 20 21 17 16 15 18 18 19 17 16 14 12 12 15 20 19 14 14 12 12 14 14 13 10 11 13 14 15 18 18 18 18 19 17 20 22 22 21 21 19
25 24 25 23 20 11 6 7 11 9 14 14 14 15 17 12 9 7 6 9 4 4 9 4 5 6 3 8 12 16 18 13 10 11 21 18 22 23 15 15 18 18 18 21 21 17 15 16 18 16 18 15 15 17 19 19 18 12 16 15 12 10 10 14 14 12 11 15 15 17 17 16 11 9 10 13 15 16 19 17 17 14 21 22 21 21 22 19
29 29 27 22 10 9 11 8 10 15 12 13 15 17 13 8 7 7 10 6 12 10 10 6 16 13 6 10 10 14 17 16 16 14 17 20 20 23 15 15 17 16 15 17 19 21 21 16 17 15 18 13 15 16 17 18 18 16 12 13 9 10 11 10 12 14 14 15 15 18 19 16 15 10 13 11 10 13 12 12 15 20 23 21 19 21 22 20
28 29 28 17 11 9 8 9 14 13 12 15 16 12 8 9 7 9 10 11 12 11 13 15 18 16 17 16 16 10 15 16 18 16 15 17 17 18 20 17 15 15 18 17 17 17 19 20 14 17 16 21 17 15 15 18 17 16 13 13 13 10 9 9 8 14 16 15 12 18 18 16 18 12 11 14 13 14 17 18 14 17 19 15 20 21 17 19
29 30 28 16 13 8 10 10 12 12 14 15 11 8 9 7 10 8 11 12 2 13 14 17 19 20 19 15 11 12 11 15 16 20 16 18 18 19 22 21 17 18 15 16 14 15 17 20 22 17 17 19 19 16 14 16 16 17 16 14 15 12 12 10 12 8 9 14 14 14 20 17 12 13 20 20 13 14 18 21 17 19 21 21 18 17 19 17
30 29 13 12 11 10 10 12 10 13 14 11 10 9 9 9 10 12 17 13 12 15 16 18 24 21 17 11 10 9 8 10 14 16 17 15 19 16 18 25 24 21 16 12 15 15 14 16 22 23 15 19 21 17 15 12 16 16 15 15 14 11 10 12 11 15 14 7 14 18 12 11 16 11 14 21 20 14 13 17 18 16 22 21 20 18 21 19
33 24 14 14 13 11 7 10 11 12 12 9 8 8 9 9 9 10 11 9 10 13 18 19 18 18 16 13 12 14 14 7 15 14 14 14 17 16 17 19 27 20 17 15 13 12 21 16 15 23 13 19 21 20 17 16 15 15 15 13 14 17 9 11 9 11 10 11 10 14 14 9 11 6 14 13 18 21 17 14 14 16 17 22 19 20 19 20
21 9 12 10 5 7 10 9 11 11 9 8 7 7 9 7 7 9 10 19 15 16 19 17 11 12 13 11 10 14 12 15 12 17 13 17 16 18 19 15 20 26 16 17 10 13 15 15 16 21 24 19 23 20 20 17 13 15 16 19 17 11 13 9 10 13 13 11 12 8 11 14 11 13 14 14 17 20 22 20 16 12 20 20 19 20 20 19
12 13 10 9 9 8 10 10 8 9 6 7 6 7 9 13 14 18 13 20 17 17 15 14 8 10 11 9 12 15 18 24 18 14 14 15 17 19 19 18 18 24 26 15 14 13 11 13 16 18 27 21 19 21 21 20 12 12 17 15 12 14 12 10 9 6 10 12 9 12 14 12 14 11 12 15 15 13 18 22 20 15 17 23 20 19 19 18
14 12 13 16 10 9 10 9 9 7 6 6 5 6 9 13 13 16 15 17 18 17 13 11 9 13 12 13 13 17 19 15 15 12 12 15 9 13 21 15 21 18 24 26 15 13 13 12 16 23 23 21 18 20 21 21 21 15 14 13 16 13 15 11 7 12 11 11 7 10 14 12 13 10 11 18 18 16 14 17 20 19 17 21 22 22 18 19
13 12 6 4 8 10 9 10 11 8 6 6 5 6 2 7 11 11 13 14 11 14 11 12 13 11 15 14 14 18 15 13 16 17 14 9 13 14 12 12 5 7 9 24 22 14 14 13 9 20 21 21 18 17 19 19 21 22 12 16 15 10 12 12 11 7 7 8 9 9 9 9 9 10 13 12 14 13 16 13 19 20 13 18 20 19 19 16
10 8 5 7 8 11 10 13 10 6 6 8 7 7 6 10 7 9 9 12 10 9 10 14 15 15 15 14 18 15 16 16 14 16 17 7 8 14 16 15 11 16 13 15 13 21 15 11 13 12 25 21 18 16 20 19 19 19 16 14 14 11 9 10 10 12 8 7 7 7 9 8 9 8 14 13 14 15 14 12 9 15 15 18 18 20 17 17
11 10 5 12 12 13 13 12 9 4 6 4 7 8 9 8 9 9 6 9 9 6 11 12 12 12 14 15 13 14 12 15 15 13 13 12 15 6 16 15 14 14 16 13 8 7 12 15 14 10 16 20 20 20 21 22 21 18 17 15 14 16 14 15 14 11 12 8 5 6 7 3 7 12 11 12 11 15 15 12 10 15 17 15 17 21 17 16
11 9 8 8 9 14 13 11 3 4 6 7 7 7 9 7 11 10 7 7 8 9 6 11 12 13 11 11 13 13 13 15 14 16 13 12 21 15 15 20 17 15 12 7 6 10 9 7 11 13 13 18 20 21 21 21 21 20 18 16 15 14 13 11 9 11 11 12 9 7 8 1 6 10 4 7 11 10 13 13 11 11 13 17 16 20 19 18
9 10 18 6 12 11 12 8 5 6 7 8 10 9 8 8 10 7 8 5 9 3 8 9 10 13 10 9 13 12 14 14 15 14 15 13 16 16 17 23 22 18 14 8 14 5 12 9 12 13 10 13 19 18 20 20 21 21 20 19 17 15 17 13 9 7 9 11 11 7 8 5 7 3 4 2 4 11 8 10 11 14 12 10 17 18 19 19
11 12 14 8 13 10 11 7 8 8 8 9 11 13 8 10 9 8 5 9 6 9 6 9 10 11 12 11 11 12 12 12 7 15 13 14 12 22 26 23 25 15 11 8 8 11 5 9 13 7 10 9 15 16 17 19 18 15 16 19 20 17 18 16 12 9 10 12 12 9 10 4 6 5 8 4 6 2 10 9 10 13 12 11 9 13 16 18
12 11 10 9 10 8 7 7 7 9 10 12 11 12 9 7 8 6 9 9 7 7 8 7 10 12 11 10 12 12 10 11 14 13 14 15 15 20 18 20 24 19 11 13 13 11 8 10 8 12 13 14 18 19 18 18 20 15 17 22 24 24 21 16 15 10 6 8 12 10 8 6 7 5 6 8 7 4 7 10 10 5 11 11 10 8 15 17
9 12 9 9 9 8 4 10 8 8 10 11 12 10 10 9 9 9 10 9 4 10 9 10 9 11 11 11 12 10 12 11 11 11 11 11 12 11 17 27 22 23 19 21 16 11 8 9 9 9 11 11 5 6 11 15 14 17 21 22 25 24 23 17 11 10 10 7 10 7 7 11 11 11 12 11 10 9 10 10 11 7 9 4 6 8 8 10
10 9 10 10 11 7 9 9 10 11 9 10 9 9 13 11 9 8 4 7 8 11 11 8 9 10 9 11 11 12 12 13 11 11 11 13 13 15 24 21 23 23 31 18 12 8 7 9 13 13 18 15 3 3 9 6 10 23 22 23 23 26 25 22 15 13 6 7 6 7 6 12 11 8 10 8 8 5 4 9 11 7 9 11 10 8 13 12
7 8 10 10 10 9 12 9 13 14 14 13 10 10 11 12 11 9 6 5 11 8 8 8 12 10 11 12 14 11 12 13 11 8 12 10 15 18 19 20 16 21 25 15 12 8 7 9 12 13 18 14 17 12 9 8 8 7 21 23 24 24 27 25 18 14 13 10 8 8 5 7 11 9 10 6 7 9 6 11 10 7 12 11 7 8 12 12
8 8 8 11 8 11 13 16 17 14 14 12 9 11 10 12 11 9 9 10 8 7 4 6 10 12 12 11 11 12 11 10 9 10 7 11 13 14 12 18 16 21 22 19 10 8 9 8 11 13 15 15 16 17 15 8 11 12 11 23 22 24 26 25 20 18 15 9 8 9 6 5 7 11 12 12 9 9 7 8 9 6 8 6 7 6 12 12
7 8 6 11 10 12 14 12 12 12 11 10 10 9 9 10 11 11 9 9 11 11 8 10 12 13 13 13 11 11 12 11 9 10 10 11 13 8 11 7 11 20 20 17 14 12 12 7 14 13 10 11 10 15 16 12 11 10 12 10 18 21 22 23 21 21 17 14 15 12 13 9 7 8 9 12 8 10 12 12 13 10 11 7 6 8 10 10
5 7 5 7 11 8 10 11 11 10 10 9 10 8 6 11 12 11 12 10 13 12 9 12 13 14 13 13 14 12 12 9 7 10 10 10 10 9 7 8 13 18 19 15 12 14 13 10 11 9 9 9 11 11 15 8 6 10 11 12 11 18 21 21 20 19 17 12 15 13 9 12 8 11 14 11 6 9 8 3 4 5 8 8 13 14 14 14
7 7 5 4 6 8 10 11 13 10 9 4 8 13 11 11 12 12 12 8 9 12 10 12 15 13 13 14 13 12 13 11 12 13 11 10 9 11 10 13 14 15 14 14 15 12 11 10 8 8 9 11 8 11 8 3 6 10 12 12 15 8 9 16 18 19 18 15 14 13 9 7 6 6 12 14 10 9 6 5 4 2 4 2 1 6 6 8
Wind_Direction
357 354 352 350 346 342 339 337 334 332 331 332 331 330 327 323 322 322 322 319 316 313 311 309 307 306 304 304 305 308 311 297 296 280 242 241 226 225 239 195 163 180 191 205 212 199 195 204 208 208 215 215 216 230 235 232 233 247 228 263 261 270 274 289 319 345 328 229 107 58 102 139 129 137 111 137 130 116 143 132 121 125 136 134 134 138 141 143
354 351 349 347 343 339 336 334 332 332 332 332 330 327 323 322 320 318 318 316 313 311 307 306 304 303 303 303 305 308 309 292 281 271 247 256 214 224 221 179 157 169 189 210 212 206 201 200 206 204 213 216 213 230 218 235 212 223 242 254 256 206 320 303 299 4 16 311 302 121 154 99 93 143 144 132 124 136 124 121 113 120 124 124 136 141 147 146
351 349 346 343 340 337 334 332 333 333 333 329 324 323 320 318 318 317 314 313 311 308 304 303 302 301 300 303 302 306 295 292 278 262 261 234 236 217 201 176 167 171 189 204 213 212 209 203 202 202 211 225 208 228 209 236 197 210 260 233 141 195 261 292 321 313 147 280 295 259 96 9 125 134 182 140 132 140 142 120 121 129 131 137 139 148 149 153
348 345 344 340 337 335 333 333 334 332 328 325 323 319 321 321 317 315 313 310 307 306 304 302 302 301 298 299 307 304 288 282 270 253 269 237 209 206 189 176 171 177 197 219 219 218 213 217 204 205 208 222 224 221 222 219 215 190 220 243 172 209 226 218 248 257 234 240 265 282 118 174 232 130 129 207 124 137 139 131 144 135 139 140 146 148 153 158
346 344 341 338 335 334 333 336 333 328 323 321 320 320 319 316 313 312 311 308 306 303 303 303 299 298 299 295 295 287 287 283 295 60 18 20 203 190 178 172 168 185 201 217 231 227 214 217 207 204 220 214 232 224 227 223 215 255 234 204 149 185 152 238 245 241 245 215 216 42 239 162 230 189 132 106 106 352 151 140 138 139 142 144 148 153 158 160
344 342 338 336 335 333 332 332 329 325 322 319 319 319 315 314 313 311 307 304 303 302 303 302 297 294 296 297 290 269 269 253 70 89 65 68 91 128 152 165 177 194 205 223 225 221 215 215 212 207 208 231 222 230 206 236 204 230 237 221 164 217 243 194 239 292 242 143 153 206 211 289 179 173 138 125 153 202 181 130 137 136 146 147 148 155 161 161
343 339 338 336 334 332 332 328 327 325 321 321 318 315 316 313 312 307 304 303 303 304 303 300 296 291 291 289 266 257 235 264 294 107 118 118 131 148 159 172 177 203 212 218 222 220 210 217 212 208 214 222 235 232 232 215 222 240 258 245 167 185 176 210 223 225 252 138 195 134 227 138 203 187 145 156 182 125 151 133 149 143 147 147 153 160 163 164
340 339 337 334 333 332 331 331 329 325 321 316 317 317 315 313 310 308 305 302 304 304 304 297 293 289 290 259 237 219 228 244 255 193 150 134 149 156 156 179 191 204 212 216 214 218 207 219 209 213 220 221 217 232 231 227 229 237 236 247 237 169 172 218 244 223 258 258 240 175 184 185 223 143 179 150 157 132 138 132 137 150 147 152 156 162 162 165
339 338 336 336 334 332 332 330 326 322 320 318 314 315 316 314 311 307 305 303 305 303 298 291 278 273 247 272 249 264 246 241 244 192 149 155 152 157 166 174 191 201 210 215 218 217 213 213 221 213 219 223 235 236 231 231 223 228 248 248 238 237 157 227 206 231 251 268 231 210 222 204 184 144 212 130 170 143 136 138 141 144 154 151 159 162 164 165
340 337 336 336 335 333 330 329 325 322 320 316 315 315 314 310 308 307 305 304 305 300 294 286 266 241 226 219 231 244 268 258 242 184 163 173 164 161 187 193 176 199 207 214 219 217 213 212 222 210 241 242 235 240 242 224 252 216 231 235 253 257 217 171 202 203 239 247 248 242 214 210 209 187 186 167 156 141 138 139 139 152 154 157 158 167 163 171
338 337 336 335 333 333 330 329 326 323 319 316 313 313 313 311 307 305 305 303 301 296 290 283 240 217 217 226 239 241 260 280 238 153 183 192 171 178 195 203 179 197 208 213 223 217 214 228 209 233 220 241 241 243 246 243 224 244 240 235 233 243 253 237 196 182 223 227 242 247 220 216 218 177 221 158 157 148 151 151 147 152 159 159 164 163 166 174
339 337 336 334 334 332 329 328 326 322 319 316 312 307 307 309 307 304 304 302 298 286 291 270 213 215 246 241 236 232 235 259 258 202 185 201 180 192 199 206 189 202 206 216 221 218 220 219 225 221 227 201 250 259 242 245 251 227 233 241 245 237 239 226 237 196 207 222 219 214 241 219 210 216 195 165 160 156 151 156 159 152 158 164 164 161 168 173
339 337 336 335 333 331 330 328 326 323 318 314 310 309 308 307 305 303 301 299 290 293 291 259 203 223 233 244 240 245 265 277 287 248 270 195 223 206 202 208 209 204 210 224 220 223 218 224 228 228 234 241 229 229 37 239 235 242 232 248 255 236 223 228 223 236 224 224 212 210 229 211 217 218 193 167 158 160 160 159 159 155 161 161 165 161 166 172
339 337 337 335 331 332 330 327 326 322 317 315 312 309 306 304 304 299 293 281 285 286 287 232 213 215 229 248 271 236 232 246 259 263 230 241 219 208 203 205 217 211 214 225 231 222 221 222 231 241 239 238 240 223 260 255 271 231 229 234 239 244 250 218 213 207 229 204 221 221 232 223 220 202 188 182 159 159 167 158 158 164 161 158 168 163 171 175
338 337 335 333 332 330 329 326 326 319 318 317 313 310 306 307 302 295 287 276 272 257 261 214 221 227 227 264 250 250 256 262 243 231 233 228 221 213 200 203 213 212 212 222 231 227 221 221 226 229 233 234 250 264 244 240 214 234 223 222 220 238 242 241 200 211 214 191 206 215 230 222 229 191 184 171 162 163 167 152 157 161 172 161 164 161 172 177
337 336 333 332 330 330 327 328 324 319 319 318 315 312 303 295 292 284 268 271 303 167 203 207 208 227 282 285 266 215 210 218 225 220 218 232 222 223 194 204 208 209 211 217 229 226 218 219 219 226 235 229 238 236 256 240 222 223 227 220 222 222 232 251 231 194 205 208 190 215 231 223 217 192 176 161 167 169 152 160 180 178 177 161 162 167 177 175
335 333 332 330 328 330 328 326 324 320 321 319 317 309 307 292 245 232 251 276 229 206 212 236 196 205 265 231 302 221 210 210 217 212 216 213 226 223 196 201 202 204 207 218 217 235 221 219 208 228 229 235 219 227 230 234 227 212 209 230 227 224 212 237 253 204 183 206 200 200 230 224 234 114 188 167 166 176 160 167 166 186 157 170 168 169 176 177
334 331 331 328 328 328 327 325 322 321 321 321 315 306 297 299 200 81 245 226 232 217 230 244 274 265 246 245 271 232 210 210 199 213 208 201 221 221 207 199 194 205 194 213 209 221 213 220 208 220 214 224 220 212 218 219 217 210 205 214 226 234 232 222 232 183 187 180 225 199 218 226 213 167 203 167 169 175 154 160 189 160 186 178 174 170 175 174
333 331 328 327 327 326 326 324 321 320 322 320 308 304 292 169 158 231 254 194 210 205 212 183 208 194 35 189 226 252 278 209 185 206 196 197 199 225 205 203 203 198 199 205 192 212 198 227 213 218 218 207 216 213 217 225 220 224 213 215 221 226 222 228 222 217 188 177 209 218 209 215 228 172 162 162 182 175 181 161 175 140 190 190 174 179 173 181
332 331 329 331 329 327 326 324 319 319 322 327 319 315 325 348 336 193 221 319 287 283 288 298 231 250 293 291 287 229 257 312 184 202 198 191 191 209 208 196 197 207 202 204 186 198 201 210 210 214 214 213 214 222 224 223 239 235 230 222 216 224 236 229 219 218 177 210 205 214 218 206 223 166 163 186 186 206 169 152 173 156 177 194 172 177 170 176
329 330 330 331 331 327 326 324 318 316 321 312 306 318 14 3 349 338 327 295 279 269 266 271 264 259 258 274 282 259 181 216 229 189 207 178 199 199 195 192 199 203 205 200 206 180 218 216 219 216 216 219 214 220 227 226 228 248 252 230 226 218 228 234 232 202 194 206 206 205 219 227 213 173 173 192 207 201 193 160 180 182 173 175 178 168 181 183
330 329 331 332 331 328 324 324 315 314 314 297 284 2 0 8 335 306 308 303 298 271 271 263 265 263 256 258 265 274 298 266 207 205 194 181 194 202 174 200 197 205 194 198 207 187 212 222 218 216 214 222 226 215 223 229 226 235 243 252 243 223 219 228 243 212 199 199 218 197 208 220 227 220 178 195 192 199 205 153 175 174 176 174 180 178 177 177
330 328 329 330 332 327 324 320 314 309 306 299 338 5 5 336 333 326 309 282 275 280 257 248 246 245 249 247 252 255 250 245 216 200 189 191 188 207 179 196 201 203 195 201 206 199 211 224 219 214 215 216 226 224 213 223 234 228 230 242 241 236 216 203 239 213 219 214 214 222 219 212 207 217 216 204 193 195 200 165 170 173 183 183 182 180 178 181
329 326 327 328 330 328 321 319 310 294 301 318 336 9 346 338 330 335 313 284 295 285 253 241 233 230 234 221 224 233 228 228 236 199 189 190 201 192 208 194 202 204 205 202 212 212 212 214 207 215 215 216 220 222 217 215 221 227 234 229 237 238 236 249 201 213 209 190 220 219 229 238 223 219 217 225 205 196 191 182 160 179 174 176 177 179 180 180
323 326 326 326 328 328 319 318 308 347 325 303 22 353 342 336 336 336 314 295 251 247 247 246 232 232 226 219 216 212 216 238 227 223 188 194 194 184 215 191 211 207 210 203 215 226 224 216 198 207 215 216 217 219 219 214 219 221 228 235 233 236 247 231 263 224 204 208 198 224 216 225 226 240 243 217 204 182 181 186 165 167 170 167 179 182 181 184
326 326 328 327 324 333 311 305 10 331 310 355 0 345 331 336 333 332 304 291 289 279 198 215 158 223 196 206 195 208 210 228 217 229 201 194 202 202 189 216 202 212 207 210 210 226 234 211 216 200 210 215 216 222 218 217 222 222 217 224 237 238 234 248 228 241 234 212 211 220 229 226 216 235 224 230 225 209 198 181 186 163 167 168 174 176 178 181
328 327 329 330 324 338 335 13 325 308 328 357 345 335 331 320 348 312 305 252 265 196 157 87 187 74 230 180 185 172 204 225 203 225 224 181 202 193 209 209 195 225 212 211 211 222 215 226 214 213 203 213 214 218 216 212 221 225 220 211 223 236 240 234 244 235 250 236 221 212 202 223 226 216 233 234 226 218 202 185 178 169 153 169 168 175 176 182
327 328 328 330 324 322 253 293 305 320 359 337 335 328 323 326 309 294 251 323 247 132 96 150 11 105 260 172 183 193 197 102 184 206 226 184 199 191 220 207 210 201 211 202 225 204 206 216 220 211 210 206 217 216 209 217 221 227 220 226 213 224 235 244 245 248 248 243 245 242 190 207 216 236 218 215 230 227 221 210 192 169 169 160 173 177 177 183
329 326 326 331 326 302 279 235 292 303 336 335 329 324 317 312 298 300 281 257 344 351 360 165 352 203 304 177 193 203 222 207 209 179 204 209 194 210 204 220 216 211 212 221 228 218 210 217 216 224 212 213 212 214 212 212 221 214 237 225 233 213 219 231 240 246 250 250 246 238 238 243 223 197 221 209 219 218 221 215 235 187 174 167 173 174 176 180
330 327 327 333 322 297 330 265 245 318 333 332 322 316 310 296 287 254 227 252 227 33 346 89 229 117 170 192 203 200 225 239 258 167 189 206 184 211 221 216 227 221 216 220 235 233 229 197 220 221 221 215 208 212 211 212 221 210 213 239 227 228 212 213 231 238 247 247 237 238 238 239 248 238 227 209 209 217 207 206 214 189 170 165 173 173 174 177
332 329 325 332 315 325 308 295 349 341 318 319 318 309 300 280 266 276 265 277 320 22 322 52 19 342 274 203 212 205 225 237 244 237 182 199 192 198 213 206 224 231 228 219 222 228 241 223 198 218 224 216 209 214 209 212 209 217 200 218 221 214 221 214 208 213 234 236 232 230 235 226 236 221 239 233 211 225 249 229 203 191 171 163 165 177 176 176
331 324 321 326 281 290 293 309 324 317 325 315 311 307 310 296 209 237 251 360 285 8 5 337 353 339 316 324 305 235 208 218 232 237 202 192 196 192 200 217 185 211 220 214 214 211 228 235 217 203 215 222 197 219 201 206 202 204 207 200 212 200 195 206 212 211 217 229 214 227 228 234 235 237 242 239 214 208 212 242 233 161 151 164 173 172 175 174
329 321 317 300 282 251 253 291 311 322 315 311 312 299 278 276 272 247 243 267 47 1 359 329 345 321 315 303 273 284 255 217 207 231 216 194 209 197 207 217 198 211 210 206 217 200 222 225 229 212 202 209 215 200 196 199 195 194 206 194 205 202 188 208 208 234 237 233 234 226 218 242 246 233 231 248 233 207 213 212 236 158 172 176 190 177 163 172
324 316 313 284 282 287 284 307 323 314 317 317 297 294 261 255 263 273 285 294 348 347 349 344 330 320 302 281 281 267 249 245 212 214 213 198 204 206 202 214 221 204 231 202 215 207 207 203 220 215 204 189 215 211 205 197 186 198 203 206 208 213 194 200 204 210 221 231 209 224 243 225 221 226 223 221 239 246 217 216 209 203 178 176 181 175 171 171
317 302 282 274 249 237 287 330 320 322 311 310 300 289 282 265 274 278 271 334 338 358 340 339 314 305 295 277 257 255 266 246 210 221 207 221 198 221 201 206 215 226 203 233 202 222 218 224 212 215 216 184 206 206 210 194 192 198 201 211 214 212 194 218 201 222 219 220 228 200 223 221 233 235 230 226 216 222 240 240 221 203 176 165 173 173 183 169
306 315 316 290 341 318 340 341 323 320 310 301 306 294 275 280 272 318 4 349 355 350 336 325 308 287 273 265 260 266 239 254 225 209 217 212 228 213 221 206 210 215 213 216 204 216 209 226 205 195 221 199 200 196 209 205 201 180 196 207 212 197 215 229 233 216 224 225 228 217 210 216 246 248 232 225 220 211 209 227 231 207 160 167 175 173 183 176
321 314 302 334 299 342 340 335 330 303 305 307 312 294 309 317 339 358 7 347 342 329 329 342 319 317 302 308 307 335 352 342 275 235 213 205 221 230 215 221 204 210 227 223 232 231 224 222 207 198 201 214 193 196 207 216 216 175 206 204 203 215 221 226 236 210 228 225 218 215 224 210 202 227 214 217 219 230 206 208 217 226 176 167 173 173 176 180
308 294 285 267 275 345 342 331 314 299 298 310 300 281 303 295 330 320 341 326 340 330 323 311 319 307 309 318 318 341 337 320 323 260 247 196 229 209 227 223 213 213 214 230 243 221 242 237 203 207 201 198 186 189 206 221 222 216 202 178 202 183 205 205 245 234 210 222 245 211 227 231 198 209 202 213 212 211 233 199 206 221 197 165 169 171 175 178
285 283 282 47 348 356 340 316 286 286 307 295 323 280 340 304 309 332 341 321 331 333 313 324 316 320 319 315 321 325 317 322 322 318 268 211 215 36 37 4 310 248 243 224 226 252 229 244 222 196 199 184 185 186 204 204 214 233 215 195 203 215 203 200 210 242 236 229 217 230 224 242 209 202 199 197 194 200 221 227 197 213 185 157 168 168 177 185
316 326 337 39 1 357 325 295 280 269 286 311 355 303 346 299 331 332 312 334 329 328 319 318 319 310 314 317 325 306 319 305 310 310 302 318 343 54 26 6 353 334 328 315 292 224 240 241 254 197 188 184 196 189 206 195 198 204 222 208 186 221 191 220 201 219 226 240 225 219 219 221 249 198 189 196 196 188 200 230 206 204 189 168 166 172 176 183
307 288 285 28 10 349 311 295 266 349 311 334 292 318 312 326 338 290 305 326 304 308 312 311 310 305 313 322 301 335 323 322 313 301 318 320 11 336 28 352 344 341 330 303 260 256 234 221 239 242 200 196 202 194 199 200 201 203 208 211 198 191 197 197 212 199 224 228 233 238 247 268 210 201 181 195 188 182 180 211 216 205 194 184 171 171 175 186
297 299 330 353 10 341 324 302 11 331 288 320 347 339 318 345 280 301 337 317 326 315 325 307 295 295 309 305 315 323 315 308 309 308 296 356 341 339 353 346 348 327 334 307 288 237 243 241 236 238 230 209 198 191 198 208 206 208 204 213 210 192 206 205 213 194 206 221 238 241 266 100 2 46 93 165 150 170 175 192 198 204 213 182 178 178 175 181
339 309 298 2 14 350 318 308 348 317 324 342 330 302 315 298 317 327 304 318 295 312 293 276 311 313 307 327 321 311 314 303 305 294 304 0 328 331 340 347 346 328 337 356 342 333 307 244 237 246 287 270 194 194 189 209 211 208 206 213 212 206 197 210 213 201 204 200 214 215 236 101 55 90 147 94 92 148 164 188 187 184 220 213 182 182 172 175
321 306 298 32 8 359 298 346 335 326 324 325 327 319 326 319 308 310 314 321 315 306 311 310 300 295 310 315 303 303 313 301 308 315 323 346 300 323 333 337 341 324 342 7 331 349 305 232 238 253 236 265 203 186 200 193 218 216 207 202 213 214 196 208 216 203 215 200 205 208 214 154 122 75 71 78 142 189 152 187 211 180 186 223 186 177 160 167
296 282 288 3 354 344 328 327 334 324 320 325 325 312 332 305 316 309 326 311 313 292 308 298 315 317 298 307 305 303 294 291 303 315 344 352 333 330 325 329 331 320 326 345 311 309 297 297 259 221 221 215 196 187 194 192 199 219 217 198 207 212 207 191 208 198 218 186 201 209 211 127 135 121 150 154 148 209 193 161 200 208 159 203 205 172 152 156
319 321 330 337 349 313 270 320 323 320 318 325 315 320 318 320 303 335 307 308 304 311 309 310 297 310 308 312 304 312 307 298 297 317 4 333 330 319 310 315 325 313 346 330 298 290 297 291 272 276 251 228 239 190 202 209 187 216 212 213 195 211 215 209 196 215 202 186 201 192 227 129 167 168 188 172 183 183 176 163 173 199 165 179 94 80 115 145
300 307 344 331 337 313 334 323 321 325 313 325 307 318 310 313 312 312 339 305 1 329 319 321 316 308 316 313 311 312 298 305 319 327 4 328 328 314 317 316 319 331 347 314 300 308 277 271 265 262 274 270 30 88 32 333 237 203 218 210 204 197 214 211 199 207 166 181 211 178 147 160 145 146 129 136 117 103 157 158 165 142 94 86 77 87 97 110
318 339 323 352 321 312 317 322 325 305 318 312 297 296 298 305 311 311 305 342 329 326 334 337 312 310 313 324 321 305 323 316 317 344 345 338 327 335 326 339 325 337 338 334 324 323 331 285 290 273 260 261 258 267 298 314 302 289 215 215 205 198 202 215 203 205 179 199 191 180 159 166 141 156 141 152 147 179 132 116 141 137 110 107 103 124 123 120
311 323 317 353 320 315 307 308 302 307 311 306 306 298 310 315 305 317 332 320 311 327 321 294 297 311 316 313 307 303 315 315 323 337 347 329 330 330 329 337 322 335 340 333 320 4 328 273 282 295 286 274 266 256 251 269 305 302 294 223 215 200 198 209 211 209 199 182 214 173 174 217 142 138 185 168 166 139 123 129 106 98 97 101 144 168 153 145
344 330 322 329 309 297 292 301 311 311 301 312 297 296 298 269 299 319 322 317 310 307 315 301 305 315 316 309 307 302 306 318 333 311 325 333 322 332 319 294 303 321 335 336 329 357 332 321 327 313 296 271 273 273 253 249 251 276 289 291 222 200 198 199 210 213 206 193 202 204 168 207 136 156 144 128 149 96 93 121 141 133 108 132 143 176 155 144
314 307 313 321 310 293 303 307 304 308 298 311 313 310 307 313 303 323 306 317 303 307 314 300 312 307 308 306 302 302 319 324 305 291 301 305 300 308 319 297 317 311 321 326 340 328 325 321 319 296 284 266 241 260 242 208 291 279 288 284 239 213 203 195 202 207 206 195 183 210 175 192 147 153 131 176 130 114 109 105 86 51 140 163 180 186 152 147
307 303 309 310 291 287 293 308 306 301 294 346 298 307 302 304 306 305 301 294 312 309 313 327 312 304 297 298 306 323 319 309 299 301 294 276 261 270 261 276 291 296 306 311 314 314 321 319 320 326 282 261 241 253 282 352 279 261 245 245 257 254 299 200 194 204 213 205 189 200 192 165 215 185 151 170 143 110 118 152 85 148 7 37 36 22 89 120